[[{"header":{"parameterUnit":"m.s-1","parameterCategory":1,"la1":30.2991,"la2":30.254,"lo1":-89.0895,"lo2":-89.0444,"dy":0.0017,"dx":0.0017,"nx":28,"ny":28,"refTime":"2024-04-22T03:00:00:Z","depth":0,"parameterNumber":2,"parameterNumberName":"U-component_of_WINDS"},"data":[0,0,0,0,0,0,0,0,0,0,0,0,0,0,0,0,0,0,0,0,0,0,0,0,0,0,0,0,0,0,0,0,0,0,0,0,0,0,0,0,0,0,0,0,0,0,0,0,0,0,0,0,0,0,0,0,0,0,-2.1547,-2.1548,0,-2.1637,-2.1639,-2.164,-2.1553,-2.155,-2.1547,-2.1543,-2.1637,-2.1643,-2.1648,0,0,0,0,0,0,0,0,0,0,0,0,0,-2.1301,-2.1306,-2.1547,-2.1549,-2.155,-2.1637,-2.1639,-2.164,-2.1554,-2.155,-2.1546,-2.1542,-2.1635,-2.1642,-2.1649,0,0,0,0,0,0,0,0,0,0,0,0,0,-2.1402,-2.1308,-2.1547,-2.1517,-2.1516,-2.1637,-2.1639,-2.164,-2.1555,-2.155,-2.1545,-2.154,-2.1633,-2.1641,-2.165,-2.1806,0,0,-2.1676,-2.1679,0,0,0,0,0,0,0,0,-2.1396,-2.1411,-2.1521,-2.152,-2.1518,-2.1579,-2.1586,-2.1696,-2.1556,-2.154,-2.1543,-2.1537,-2.1622,-2.1631,-2.1659,-2.181,-2.1814,-2.1677,-2.1682,-2.1685,-2.1688,0,0,0,0,0,0,0,-2.1389,-2.1406,-2.1583,-2.1522,-2.1521,-2.1499,-2.1508,-2.1606,-2.1609,-2.1541,-2.1535,-2.1547,-2.162,-2.1651,-2.1661,-2.1815,-2.1676,-2.1684,-2.1689,-2.1692,-2.2098,-2.2103,0,0,0,0,0,0,-2.1385,-2.1401,-2.158,-2.1586,-2.1443,-2.1508,-2.1518,-2.1565,-2.1608,-2.1609,-2.1551,-2.1542,-2.1639,-2.1651,-2.1664,-2.185,-2.1685,-2.1693,-2.1698,-2.2092,-2.2099,-2.2105,0,0,0,0,0,0,-2.138,-2.1402,-2.1577,-2.1492,-2.1512,-2.1518,-2.1571,-2.1569,-2.16,-2.1615,-2.1615,-2.1583,-2.1636,-2.1652,-2.1771,-2.1852,-2.1697,-2.1705,-2.2086,-2.2094,-2.2102,-2.2223,0,0,0,0,0,0,-2.1374,-2.1401,-2.146,-2.1494,-2.1517,-2.1683,-2.1576,-2.1575,-2.1615,-2.1604,-2.1645,-2.1646,-2.1633,-2.1759,-2.1779,-2.1861,-2.1712,-2.2078,-2.2089,-2.2099,-2.2212,-2.2235,-2.2254,0,0,0,0,0,-2.1365,-2.1491,-2.1464,-2.1486,-2.1592,-2.1687,-2.1701,-2.1683,-2.1622,-2.1682,-2.1691,-2.1645,-2.1839,-2.1771,-2.1794,-2.188,-2.2073,-2.2086,-2.2099,-2.2203,-2.2231,-2.2254,0,0,0,0,0,0,-2.1468,-2.1495,-2.1465,-2.1606,-2.1645,-2.1673,-2.1748,-2.1712,-2.177,-2.1758,-2.1732,-2.1742,-2.1869,-2.1885,-2.181,-2.2032,-2.1946,-2.1964,-2.2018,-2.2044,-2.2065,-2.206,-2.1719,0,0,0,0,0,-2.1507,-2.1582,-2.1602,-2.1724,-2.1745,-2.1743,-2.1784,-2.1766,-2.1806,-2.1822,-2.184,-2.1881,-2.1951,-2.1998,-2.2063,-2.2213,-2.2221,-2.2282,-2.2303,-2.2321,-2.2338,-2.2418,-2.2447,-2.2147,-2.2147,-2.2147,0,0,-2.1589,-2.1613,-2.1662,-2.1745,-2.1774,-2.1853,-2.1758,-2.1845,-2.1904,-2.1836,-2.195,-2.1964,-2.2007,-2.2143,-2.2203,-2.2161,-2.2421,-2.2337,-2.2351,-2.2358,-2.2434,-2.2463,-2.2488,-2.2156,-2.2154,-2.2153,0,0,-2.1779,-2.1804,-2.1909,-2.1939,-2.1982,-2.198,-2.2005,-2.2038,-2.2045,-2.2158,-2.2108,-2.2177,-2.2298,-2.2331,-2.2364,-2.2563,-2.2524,-2.2585,-2.2697,-2.2776,-2.2799,-2.282,-2.2893,-2.2919,-2.2601,-2.2601,-2.2601,0,-2.1876,-2.1993,-2.1967,-2.2059,-2.2097,-2.2037,-2.2143,-2.2173,-2.2236,-2.2264,-2.2215,-2.2365,-2.239,-2.2532,-2.2581,-2.2608,-2.2637,-2.2582,-2.2798,-2.2818,-2.2838,-2.2907,-2.2934,-2.2608,-2.2608,-2.2607,-2.2606,0,-2.211,-2.2191,-2.2271,-2.2333,-2.2379,-2.2477,-2.2467,-2.2517,-2.2494,-2.2497,-2.2613,-2.264,-2.271,-2.2741,-2.272,-2.2881,-2.2853,-2.2801,-2.2715,-2.2874,-2.2939,-2.2965,-2.2619,-2.2616,-2.2614,-2.2612,0,0,-2.2371,-2.2416,-2.2446,-2.2473,-2.2515,-2.2578,-2.2672,-2.274,-2.2784,-2.2828,-2.2908,-2.301,-2.2962,-2.2999,-2.298,-2.305,-2.3208,-2.2989,-2.299,-2.3031,-2.3388,-2.3429,-2.346,-2.318,-2.3185,-2.3188,-2.3385,0,-2.2564,-2.273,-2.2709,-2.2867,-2.2943,-2.2885,-2.2968,-2.3003,-2.3007,-2.3071,-2.3075,-2.3149,-2.3079,-2.3101,-2.3166,-2.3175,-2.328,-2.316,-2.3255,-2.3259,-2.3249,-2.3493,-2.3538,-2.3722,-2.341,-2.3414,-2.3417,0,-2.2813,-2.2865,-2.3032,-2.3061,-2.3092,-2.3167,-2.3227,-2.3288,-2.3326,-2.3324,-2.3365,-2.3333,-2.3428,-2.3337,-2.3468,-2.3387,-2.3424,-2.3433,-2.344,-2.3451,-2.335,-2.3514,-2.378,-2.3809,-2.3456,-2.3453,-2.345,0,-2.299,-2.3102,-2.3216,-2.324,-2.3277,-2.3331,-2.3349,-2.3382,-2.3423,-2.3475,-2.3502,-2.3564,-2.3599,-2.3647,-2.3633,-2.3568,-2.3767,-2.3675,-2.377,-2.377,-2.3818,-2.3815,-2.4097,-2.3837,-2.3836,-2.3836,-2.3835,0,-2.3209,-2.3314,-2.3296,-2.3366,-2.3481,-2.3455,-2.3569,-2.358,-2.3609,-2.3681,-2.3633,-2.3701,-2.3677,-2.3744,-2.3733,-2.3844,-2.3859,-2.3861,-2.3857,-2.3867,-2.3867,-2.3893,-2.3881,-2.3843,-2.3841,-2.384,-2.3839,0,-2.3428,-2.342,-2.3541,-2.3565,-2.3573,-2.3658,-2.3678,-2.3744,-2.3743,-2.3834,-2.3854,-2.3853,-2.3929,-2.3918,-2.4003,-2.3995,-2.4134,-2.4113,-2.4122,-2.4118,-2.4214,-2.4206,-2.4525,-2.4566,-2.4277,-2.4279,-2.4282,0,-2.3571,-2.365,-2.3682,-2.3726,-2.3748,-2.382,-2.3862,-2.3838,-2.3883,-2.3931,-2.3992,-2.4063,-2.4119,-2.4242,-2.4249,-2.4313,-2.4296,-2.4402,-2.4305,-2.4312,-2.43,-2.4297,-2.4305,-2.4423,-2.4426,-2.4429,-2.4431,0,-2.3826,-2.3817,-2.3879,-2.394,-2.3991,-2.4037,-2.4079,-2.4118,-2.4098,-2.4151,-2.4228,-2.4271,-2.4356,-2.4428,-2.4488,-2.4505,-2.4467,-2.4461,-2.4487,-2.4499,-2.4502,-2.4504,-2.4177,-2.4455,-2.4453,-2.4451,-2.445,-2.4449,-2.4012,-2.408,-2.4113,-2.4184,-2.4212,-2.4252,-2.4315,-2.4321,-2.4385,-2.4453,-2.4434,-2.4521,-2.4555,-2.4631,-2.4655,-2.4722,-2.4683,-2.472,-2.473,-2.474,-2.4753,-2.4488,-2.4733,-2.4732,-2.4731,-2.4731,-2.473,0,-2.4267,-2.4284,-2.4349,-2.4409,-2.4464,-2.4419,-2.4463,-2.4513,-2.459,-2.4624,-2.468,-2.4768,-2.4836,-2.4847,-2.4912,-2.4964,-2.4948,-2.4982,-2.498,-2.4985,-2.4783,-2.4755,-2.4995,-2.4994,-2.4994,-2.4994,-2.4994,-2.4994,-2.4406,-2.4518,-2.4513,-2.4638,-2.4655,-2.474,-2.4769,-2.4805,-2.4833,-2.4933,-2.4989,-2.4995,-2.5021,-2.5086,-2.5147,-2.5148,-2.5176,-2.5218,-2.5213,-2.5025,-2.4999,-2.4974,-2.4948,-2.5224,-2.5224,-2.541,-2.5411,-2.5413]},{"header":{"parameterUnit":"m.s-1","parameterCategory":1,"la1":30.2991,"la2":30.254,"lo1":-89.0895,"lo2":-89.0444,"dy":0.0017,"dx":0.0017,"nx":28,"ny":28,"refTime":"2024-04-22T03:00:00:Z","depth":0,"parameterNumber":3,"parameterNumberName":"V-component_of_WINDS"},"data":[0,0,0,0,0,0,0,0,0,0,0,0,0,0,0,0,0,0,0,0,0,0,0,0,0,0,0,0,0,0,0,0,0,0,0,0,0,0,0,0,0,0,0,0,0,0,0,0,0,0,0,0,0,0,0,0,0,0,-6.6455,-6.6456,0,-6.6579,-6.6581,-6.6582,-6.6478,-6.6474,-6.647,-6.6466,-6.6587,-6.6594,-6.6601,0,0,0,0,0,0,0,0,0,0,0,0,0,-6.612,-6.6127,-6.6455,-6.6456,-6.6458,-6.6579,-6.6581,-6.6582,-6.6479,-6.6474,-6.6468,-6.6464,-6.6585,-6.6593,-6.6602,0,0,0,0,0,0,0,0,0,0,0,0,0,-6.6257,-6.6129,-6.6454,-6.6421,-6.6419,-6.6579,-6.6581,-6.6583,-6.648,-6.6474,-6.6467,-6.6461,-6.6582,-6.6593,-6.6603,-6.68,0,0,-6.6637,-6.6641,0,0,0,0,0,0,0,0,-6.625,-6.627,-6.6424,-6.6424,-6.6422,-6.6507,-6.6507,-6.6655,-6.6482,-6.6457,-6.6465,-6.6458,-6.6565,-6.6577,-6.6614,-6.6806,-6.6811,-6.6638,-6.6644,-6.6649,-6.6652,0,0,0,0,0,0,0,-6.624,-6.6264,-6.6504,-6.6427,-6.6425,-6.6397,-6.641,-6.6535,-6.6546,-6.6458,-6.6451,-6.6468,-6.6563,-6.6604,-6.6617,-6.6813,-6.6637,-6.6647,-6.6654,-6.6658,-6.717,-6.7177,0,0,0,0,0,0,-6.6235,-6.6256,-6.65,-6.6507,-6.6318,-6.6409,-6.6422,-6.6486,-6.6544,-6.6547,-6.6473,-6.6462,-6.6589,-6.6604,-6.662,-6.6854,-6.6649,-6.6659,-6.6665,-6.7163,-6.7172,-6.7179,0,0,0,0,0,0,-6.6228,-6.6258,-6.6495,-6.638,-6.6408,-6.6421,-6.6493,-6.6492,-6.6533,-6.6555,-6.6556,-6.6514,-6.6584,-6.6605,-6.6756,-6.6857,-6.6664,-6.6674,-6.7155,-6.7166,-6.7176,-6.7324,0,0,0,0,0,0,-6.6219,-6.6256,-6.6333,-6.6383,-6.6415,-6.6631,-6.65,-6.6499,-6.6552,-6.654,-6.6593,-6.6596,-6.6581,-6.6741,-6.6767,-6.6868,-6.6682,-6.7146,-6.716,-6.7172,-6.731,-6.7338,-6.7362,0,0,0,0,0,-6.6208,-6.6369,-6.6337,-6.6367,-6.6511,-6.6637,-6.6655,-6.6636,-6.6561,-6.6637,-6.6651,-6.6594,-6.6842,-6.6757,-6.6786,-6.6892,-6.7139,-6.7156,-6.7171,-6.7298,-6.7333,-6.7362,0,0,0,0,0,0,-6.6329,-6.6375,-6.634,-6.6523,-6.6577,-6.662,-6.6715,-6.6673,-6.6749,-6.6733,-6.6705,-6.6717,-6.6877,-6.6899,-6.6804,-6.7085,-6.6978,-6.7,-6.7065,-6.7098,-6.7123,-6.7115,-6.6691,0,0,0,0,0,-6.6377,-6.6478,-6.6511,-6.6669,-6.6698,-6.6702,-6.6756,-6.6737,-6.6791,-6.6813,-6.6838,-6.6891,-6.698,-6.704,-6.7124,-6.7312,-6.7321,-6.7399,-6.7425,-6.7447,-6.7467,-6.7566,-6.7601,-6.7232,-6.7231,-6.7231,0,0,-6.6477,-6.6515,-6.658,-6.6694,-6.6734,-6.6836,-6.6722,-6.6836,-6.6911,-6.6829,-6.6975,-6.6995,-6.7052,-6.7222,-6.7299,-6.7246,-6.757,-6.7467,-6.7484,-6.7492,-6.7586,-6.7621,-6.7652,-6.7242,-6.724,-6.7239,0,0,-6.6712,-6.6751,-6.6887,-6.6929,-6.6991,-6.6993,-6.7025,-6.7074,-6.7085,-6.723,-6.7171,-6.7258,-6.7413,-6.7456,-6.7498,-6.7748,-6.7698,-6.7776,-6.7912,-6.801,-6.8039,-6.8065,-6.8153,-6.8186,-6.7795,-6.7796,-6.7796,0,-6.6828,-6.6983,-6.6961,-6.7079,-6.713,-6.7063,-6.7198,-6.7239,-6.7325,-6.7361,-6.7301,-6.7493,-6.7527,-6.7706,-6.7767,-6.7804,-6.7838,-6.777,-6.8037,-6.8063,-6.8086,-6.817,-6.8204,-6.7805,-6.7804,-6.7803,-6.7802,0,-6.7122,-6.723,-6.7331,-6.7418,-6.748,-6.7606,-6.7601,-6.7666,-6.7641,-6.7648,-6.7795,-6.7833,-6.7923,-6.7964,-6.794,-6.8139,-6.8105,-6.8042,-6.7934,-6.8131,-6.8209,-6.8241,-6.7818,-6.7814,-6.7812,-6.7809,0,0,-6.7438,-6.751,-6.7548,-6.7585,-6.7648,-6.773,-6.7852,-6.7941,-6.7997,-6.8058,-6.8158,-6.8291,-6.8232,-6.828,-6.826,-6.8346,-6.854,-6.8272,-6.8272,-6.832,-6.8761,-6.8808,-6.8846,-6.8507,-6.8513,-6.8518,-6.8756,0,-6.7675,-6.789,-6.7873,-6.8075,-6.8173,-6.811,-6.8215,-6.8264,-6.8274,-6.8356,-6.8365,-6.846,-6.8376,-6.8404,-6.8487,-6.8499,-6.8628,-6.8482,-6.8598,-6.8603,-6.8587,-6.8887,-6.8938,-6.9161,-6.8786,-6.8792,-6.8795,0,-6.7982,-6.8055,-6.8268,-6.8315,-6.8355,-6.8451,-6.8531,-6.8611,-6.8664,-6.8664,-6.8718,-6.8683,-6.8803,-6.8692,-6.8856,-6.8757,-6.8803,-6.8816,-6.8824,-6.8835,-6.8711,-6.8905,-6.9232,-6.9265,-6.8843,-6.884,-6.8836,0,-6.819,-6.8342,-6.8488,-6.8522,-6.8581,-6.865,-6.8677,-6.8724,-6.8778,-6.8847,-6.8881,-6.8962,-6.9007,-6.9069,-6.9056,-6.8977,-6.9223,-6.9112,-6.9226,-6.9226,-6.9281,-6.9278,-6.9619,-6.9311,-6.931,-6.931,-6.9309,0,-6.8458,-6.859,-6.8583,-6.8673,-6.8818,-6.8796,-6.894,-6.8958,-6.9,-6.9091,-6.904,-6.9125,-6.9103,-6.9187,-6.9177,-6.9313,-6.9334,-6.9336,-6.9332,-6.9341,-6.9341,-6.9371,-6.9355,-6.9319,-6.9317,-6.9315,-6.9313,0,-6.8716,-6.8717,-6.8872,-6.8915,-6.8929,-6.9034,-6.9069,-6.9153,-6.9158,-6.9273,-6.9299,-6.9306,-6.9402,-6.9395,-6.9503,-6.9496,-6.9665,-6.9642,-6.9648,-6.9643,-6.9757,-6.9747,-7.0131,-7.0179,-6.984,-6.9843,-6.9846,0,-6.8887,-6.8987,-6.9041,-6.9099,-6.9132,-6.9226,-6.9281,-6.9262,-6.9321,-6.9388,-6.9464,-6.9556,-6.9628,-6.9785,-6.9798,-6.988,-6.9858,-6.9987,-6.987,-6.9876,-6.986,-6.9854,-6.9864,-7.001,-7.0014,-7.0017,-7.002,0,-6.9189,-6.9184,-6.9268,-6.9351,-6.9419,-6.9483,-6.9542,-6.9591,-6.9578,-6.9647,-6.9746,-6.9802,-6.9913,-7.0004,-7.0082,-7.0106,-7.0061,-7.0056,-7.0087,-7.0098,-7.0097,-7.0098,-6.9711,-7.0048,-7.0045,-7.0043,-7.0041,-7.004,-6.9409,-6.9495,-6.9546,-6.964,-6.9682,-6.9738,-6.9818,-6.9834,-6.9916,-7.0007,-6.9989,-7.01,-7.0147,-7.0248,-7.028,-7.0365,-7.0318,-7.0363,-7.0374,-7.0385,-7.0398,-7.0084,-7.0379,-7.0378,-7.0377,-7.0376,-7.0376,0,-6.9708,-6.9738,-6.9825,-6.9909,-6.9982,-6.9934,-6.9996,-7.006,-7.0159,-7.0208,-7.0281,-7.0394,-7.0482,-7.0502,-7.0585,-7.0649,-7.063,-7.0672,-7.0667,-7.0673,-7.0435,-7.0401,-7.0686,-7.0686,-7.0685,-7.0685,-7.0685,-7.0685,-6.9873,-7.0016,-7.0017,-7.0179,-7.0207,-7.0317,-7.0356,-7.0406,-7.0446,-7.0575,-7.0648,-7.0661,-7.0698,-7.0784,-7.0862,-7.0865,-7.0898,-7.0948,-7.0943,-7.0721,-7.069,-7.066,-7.0627,-7.0955,-7.0956,-7.1173,-7.1175,-7.1177]}]]